DW1083 Weather Reports


Display with metric or nautical units.
time (UTC)temp
F
wind
direction
speed
MPH
gust
MPH
rain 1hr
in
rain 24hr
in
rain mn
in
humidity
%
barometer
mb
20260502180312 53 0 0.0 0.0 0.00 0.00 0.00 57 1019.9
20260502170312 54 315 3.0 5.0 0.00 0.00 0.00 58 1019.2
20260502163312 56 315 2.0 4.0 0.00 0.00 0.00 54 1019.8
20260502160312 59 292 2.0 4.0 0.00 0.00 0.00 50 1020.5
20260502150311 66 270 1.0 3.0 0.00 0.00 0.00 39 1021.8
20260502130312 66 292 2.0 8.0 0.00 0.00 0.00 44 1023.2
20260502123311 66 180 2.0 6.0 0.00 0.00 0.00 43 1023.6
20260502120311 65 180 2.0 5.0 0.00 0.00 0.00 44 1023.9
20260502113311 64 157 4.0 8.0 0.00 0.00 0.00 51 1024.1
20260502110311 63 157 4.0 9.0 0.00 0.00 0.00 53 1024.4
20260502103310 62 180 3.0 7.0 0.00 0.00 0.00 56 1024.9
20260502100310 60 157 4.0 7.0 0.00 0.00 0.00 60 1025.2
20260502090310 58 180 3.0 6.0 0.00 0.00 0.00 59 1025.5
20260502070310 51 0 0.0 0.0 0.00 0.00 0.00 69 1026.0
20260502063310 50 0 0.0 0.0 0.00 0.00 0.00 73 1025.8
20260502060309 46 0 0.0 0.0 0.00 0.00 0.00 79 1025.7
20260502050309 39 0 0.0 0.0 0.00 0.00 0.00 84 1025.1
20260502040309 39 0 0.0 0.0 0.00 0.00 0.00 82 1025.7
20260502030309 39 0 0.0 0.0 0.00 0.00 0.00 83 1026.6
20260502023309 39 0 0.0 0.0 0.00 0.00 0.00 83 1026.7
20260502020309 39 0 0.0 0.0 0.00 0.00 0.00 82 1026.7
20260502013314 39 0 0.0 0.0 0.00 0.00 0.00 82 1027.0
20260502003313 40 0 0.0 0.0 0.00 0.00 0.00 80 1027.4
20260501233313 41 0 0.0 0.0 0.00 0.00 0.00 79 1027.6
20260501223313 42 0 0.0 0.0 0.00 0.00 0.00 77 1027.3
20260501220313 42 315 0.0 2.0 0.00 0.00 0.00 76 1027.2
20260501213312 42 315 1.0 3.0 0.00 0.00 0.00 75 1027.0
20260501210312 43 315 2.0 4.0 0.00 0.00 0.00 74 1027.0
20260501203312 44 360 1.0 3.0 0.00 0.00 0.00 72 1026.9
20260501200312 44 0 0.0 0.0 0.00 0.00 0.00 71 1026.4
20260501193312 44 0 0.0 0.0 0.00 0.00 0.00 70 1025.9
20260501190312 45 292 1.0 5.0 0.00 0.00 0.00 71 1025.5
20260501183312 45 292 1.0 2.0 0.00 0.00 0.00 70 1024.8